GSAT0205 (GALILEO 9)

Last updated on Feb. 23, 2020, 4:52 a.m. UTC

1 40889U 15045A   20052.61392154  .00000008  00000-0  00000+0 0  9991
2 40889  56.2438 285.3153 0005344  20.5999 339.4942  1.70474811 27675
UTC
Height (km)
Latitude
Longitude
Inclination
Orbital Period
UTC large
Height (km)
Speed (km/s)
/
Latitude / Longitude
Inclination (degrees)
Orbital Period (minutes)
Azimuth
Elevation
Range (km)
Doppler Factor
iOS Compass Heading
iOS Angle

Next 30 passes for location: Hong Kong

Rise time Rise Azimuth (degrees) Set time Set Azimuth (degrees) Duration Max altitude (degrees)

No matching passes for this satellites